Flag for U.S.A. Weather past 2 weeks in Winamac, Indiana, U.S.A.

Now
55 °F

Clear.


Feels Like: 55 °F
Forecast: 51 / 75 °F
Wind: 3 mph from Southeast

Location: Porter County Municipal Airport

Current Time: Jul 25, 2014 at 12:17:01 AM

Latest Report: Jul 24, 2014 at 11:53 PM


Visibility: 10 mi

Pressure: 30.07 "Hg

Humidity: 87%

Dew point: 51 °F

Location of WinamacLocation

Historic Weather in Winamac — Graph

°F

Winamac temperature yesterday

Maximum temperature yesterday: 73 °F (at 2:53 PM)
Minimum temperature yesterday: 52 °F (at 10:53 PM)
Average temperature yesterday: 64 °F

Past Weeks' High & Low Weather Summary

 TemperatureHumidityPressure
High83 °F (Jul 13, 3:53 PM)97% (Jul 12, 11:53 AM)30.24 "Hg (Jul 12, 11:53 AM)
Low49 °F (Jul 17, 3:53 AM)38% (Jul 10, 6:53 PM)29.79 "Hg (Jul 14, 6:53 PM)
Average67 °F74%30.05 "Hg
* Reported Jul 9 10:53 PM — Jul 24 10:53 PM, Winamac, Weather by CustomWeather, © 2014

Note: Actual official high and low records may vary slightly from our data, if they occured in-between our weather recording intervals... More about our weather records

Advertising

Winamac weather history for previous 24 hours

 ConditionsComfort  
Time TempWeatherWind HumidityBarometerVisibility
10:53 PM
Jul 24
52 °FClear.5 mph93%30.08 "Hg10 mi
9:53 PM59 °FClear.3 mph75%30.10 "Hg10 mi
8:53 PM62 °FSunny.3 mph67%30.09 "Hg10 mi
7:53 PM68 °FSunny.5 mph55%30.09 "Hg10 mi
6:53 PM71 °FSunny.7 mph53%30.09 "Hg10 mi
5:53 PM72 °FSunny.6 mph53%30.09 "Hg10 mi
4:53 PM72 °FSunny.7 mph53%30.10 "Hg10 mi
3:53 PM73 °FPassing clouds.7 mph53%30.12 "Hg10 mi
2:53 PM73 °FPartly sunny.8 mph53%30.13 "Hg10 mi
1:53 PM71 °FScattered clouds.9 mph53%30.14 "Hg10 mi
12:53 PM70 °FPartly sunny.8 mph53%30.15 "Hg10 mi
11:53 AM69 °FPartly sunny.5 mph57%30.15 "Hg10 mi
10:53 AM70 °FSunny.8 mph55%30.15 "Hg10 mi
9:53 AM67 °FSunny.8 mph71%30.16 "Hg10 mi
8:53 AM63 °FPassing clouds.5 mph78%30.16 "Hg10 mi
7:53 AM58 °FPassing clouds.No wind87%30.15 "Hg10 mi
6:53 AM55 °FSunny.3 mph87%30.13 "Hg10 mi
5:53 AM56 °FClear.5 mph87%30.12 "Hg10 mi
4:53 AM57 °FClear.6 mph87%30.11 "Hg10 mi
3:53 AM57 °FClear.5 mph87%30.11 "Hg10 mi
2:53 AM58 °FClear.3 mph87%30.11 "Hg10 mi
1:53 AM59 °FClear.5 mph90%30.11 "Hg10 mi
12:53 AM58 °FClear.3 mph93%30.11 "Hg10 mi
Weather by CustomWeather, © 2014

See weather overviewHow to use our weather pages